Home   Weather   Bengaluru   Past weeks

Flag for India Past Weather in Bengaluru, Karnataka, India — Yesterday and Last 2 Weeks

Now
72 °F

Clear.


Feels Like: 75 °F
Forecast: 65 / 82 °F
Wind: 8 mph from Southwest

Location: Bangalore / Hindustan

Current Time: Oct 1, 2016 at 10:57:31 PM

Latest Report: Oct 1, 2016 at 10:30 PM


Visibility: 10 mi

Pressure: 29.95 "Hg (27.06 "Hg at 876m altitude)

Humidity: 69%

Dew Point: 61 °F

Location of BengaluruLocation

Past Weather in Bengaluru — Graph

°F

Bengaluru Temperature Yesterday

Maximum temperature yesterday: 84 °F (at 2:30 PM)
Minimum temperature yesterday: 70 °F (at 5:30 AM)
Average temperature yesterday: 77 °F

High & Low Weather Summary for the Past Weeks

 TemperatureHumidityPressure
High86 °F (Sep 28, 3:30 PM)100% (Sep 22, 6:30 AM)30.01 "Hg (Sep 22, 6:30 AM)
Low66 °F (Sep 18, 5:30 AM)45% (Sep 18, 4:00 PM)29.74 "Hg (Sep 24, 2:30 PM)
Average76 °F72%29.88 "Hg
* Reported Sep 16 9:30 PM — Oct 1 9:30 PM, Bengaluru, Weather by CustomWeather, © 2016

Note: Actual official high and low records may vary slightly from our data, if they occured in-between our weather recording intervals... More about our weather records

Advertising

Bengaluru Weather History for the Previous 24 Hours

Scroll right to see more
 ConditionsComfort  
Time TempWeatherWind HumidityBarometerVisibility
9:30 PM
Sat, Oct 1
73 °FClear.7 mph69%29.92 "Hg10 mi
8:30 PM73 °FClear.3 mph65%29.92 "HgN/A
7:30 PM75 °FPassing clouds.3 mph61%29.89 "HgN/A
6:30 PM77 °FScattered clouds.6 mph57%29.86 "HgN/A
5:30 PM81 °FScattered clouds.9 mph51%29.83 "HgN/A
5:00 PM81 °FScattered clouds.7 mph54%29.83 "HgN/A
4:30 PM82 °FScattered clouds.5 mph51%29.83 "HgN/A
4:00 PM82 °FScattered clouds.9 mph51%29.83 "HgN/A
3:30 PM82 °FScattered clouds.12 mph51%29.83 "HgN/A
3:00 PM82 °FScattered clouds.10 mph48%29.83 "HgN/A
2:30 PM82 °FScattered clouds.12 mph48%29.83 "HgN/A
2:00 PM81 °FPassing clouds.12 mph54%29.83 "HgN/A
1:30 PM81 °FPassing clouds.12 mph54%29.86 "HgN/A
1:00 PM81 °FPassing clouds.12 mph54%29.86 "HgN/A
12:30 PM79 °FPassing clouds.12 mph58%29.86 "HgN/A
11:30 AM77 °FScattered clouds.9 mph65%29.89 "HgN/A
11:00 AM77 °FScattered clouds.12 mph65%29.92 "HgN/A
10:30 AM75 °FScattered clouds.8 mph65%29.92 "HgN/A
10:00 AM75 °FScattered clouds.8 mph65%29.92 "HgN/A
9:30 AM73 °FScattered clouds.8 mph69%29.92 "HgN/A
9:00 AM72 °FBroken clouds.9 mph78%29.92 "HgN/A
8:30 AM70 °FBroken clouds.9 mph83%29.92 "HgN/A
8:00 AM70 °FBroken clouds.12 mph83%29.92 "HgN/A
7:30 AM70 °FBroken clouds.12 mph83%29.89 "HgN/A
7:00 AM70 °FBroken clouds.10 mph83%29.89 "HgN/A
6:30 AM68 °FPartly cloudy.9 mph88%29.89 "HgN/A
6:00 AM68 °FPassing clouds.10 mph88%29.89 "HgN/A
5:30 AM68 °FPassing clouds.9 mph88%29.86 "HgN/A
11:30 PM
Fri, Sep 30
75 °FPassing clouds.9 mph74%29.89 "HgN/A
10:30 PM75 °FPassing clouds.9 mph74%29.89 "HgN/A
Weather by CustomWeather, © 2016

See weather overviewHow to use our weather pages